Temp_Advection
nan nan nan nan nan nan nan nan nan nan nan nan nan nan nan nan nan nan nan nan nan nan nan nan nan nan nan nan nan nan nan nan nan nan nan nan nan nan nan nan nan nan nan
nan 0 0 0 0 -0 0 0 0 0 0 0 0 0 0 0 0 -0 -0 -0 -0 -0 0 0 0 0 -0 -0 0 -0 -0 -0 -0 0 -0 -0 0 0 -0 0 0 0 nan
nan -0 0 -0 0 -0 -0 0 0 0 -0 -0 0 -0 0 0 -0 0 0 -0 0 -0 -1 -1 -0 -0 -0 -0 -0 -0 -0 -0 -0 0 -0 -0 -0 0 0 -0 -0 0 nan
nan 0 -0 0 0 0 -0 0 0 0 0 0 0 0 0 0 -0 0 0 0 0 -0 -0 -0 -1 -0 -0 -0 -0 -0 -0 -0 -0 -0 -0 0 -0 -0 -0 -0 -0 -0 nan
nan 0 0 0 0 0 0 -0 0 0 0 0 0 0 0 0 0 0 -0 0 -0 0 0 0 0 -0 -0 -0 -0 -0 0 0 -0 -0 -0 0 0 -0 0 -0 -0 -0 nan
nan 0 0 0 0 0 0 0 0 -0 0 0 0 0 0 0 0 0 0 0 -0 0 0 0 0 0 -0 -0 -0 -0 -0 0 0 -0 -0 0 -0 -0 -0 -0 -0 -0 nan
nan 0 0 0 0 -0 -0 0 0 -0 -0 0 0 0 0 0 0 0 0 0 0 0 0 0 -0 -0 -0 -0 -0 -0 -0 -0 -0 0 0 0 -0 -0 -0 -0 -0 -0 nan
nan 0 0 0 0 -0 0 0 -0 -0 0 -0 0 -0 0 0 0 0 0 0 -0 0 0 0 0 -0 -0 -0 -0 0 0 0 -0 0 0 0 0 -0 -0 -0 -0 -0 nan
nan 0 0 0 0 0 0 0 0 0 0 0 0 0 0 0 0 0 0 0 -0 -0 0 0 0 0 0 -0 0 0 0 0 0 0 0 0 0 -0 -0 -0 -0 -0 nan
nan -0 0 0 0 0 0 0 0 0 0 0 0 0 0 0 0 0 0 -0 0 -0 0 0 0 0 0 0 -0 -0 0 0 0 0 0 0 0 0 0 -0 -0 -0 nan
nan 0 -0 -0 0 0 0 0 0 0 0 0 0 0 0 0 0 -0 -0 0 0 0 0 0 0 0 0 0 -0 -0 -0 0 0 0 0 0 0 0 0 0 -0 -0 nan
nan 0 -0 -0 0 0 1 0 0 0 0 0 1 0 0 0 0 0 0 0 0 0 0 0 0 0 -0 -0 -0 0 -0 -0 0 0 0 0 0 0 0 0 0 -0 nan
nan -0 0 0 -0 0 0 -0 0 -0 -0 0 0 0 0 0 0 0 0 0 0 0 0 0 0 0 -0 -0 0 0 0 0 0 0 0 0 0 0 0 0 0 0 nan
nan -0 -0 -0 -0 0 -0 -0 0 -0 0 0 -0 0 0 0 0 0 0 0 0 -0 -0 0 0 0 0 0 0 0 0 0 0 0 0 0 0 0 0 0 0 0 nan
nan -0 -0 -0 0 -0 0 0 -0 -0 -0 -0 0 0 0 0 0 0 0 0 -0 -1 0 0 0 0 0 0 0 0 0 0 0 0 0 0 0 0 0 -0 -0 0 nan
nan -0 -0 -0 0 -0 -0 -0 -0 -0 -0 0 0 0 0 0 0 -0 0 0 -0 0 -0 0 0 0 0 0 0 0 0 0 0 0 0 0 0 0 0 0 0 0 nan
nan -0 -0 -0 -0 -0 -0 -0 -0 0 0 0 -0 0 0 0 -0 -0 0 0 0 -0 -0 0 -0 0 -0 -0 0 0 0 0 0 0 0 0 0 0 0 0 0 0 nan
nan -1 -0 -0 -1 -0 0 0 0 0 0 0 0 0 0 -0 0 0 0 0 0 0 1 0 0 0 -0 0 0 0 0 0 0 0 0 0 0 0 0 0 0 0 nan
nan -1 -1 -0 -0 0 1 1 0 0 0 0 0 -0 0 0 0 -0 0 1 1 0 0 0 -0 -0 0 0 0 0 0 0 0 0 0 0 0 -0 -0 0 0 0 nan
nan -0 -0 -0 0 0 1 1 0 0 0 0 -0 -0 0 0 0 0 0 1 1 -0 -0 -1 -0 0 0 0 0 -0 -0 0 0 0 0 0 -0 -0 -0 -0 0 0 nan
nan -0 -1 -1 -0 0 1 0 0 -0 -0 -0 -0 0 0 0 0 1 1 1 -0 -0 -1 -0 -0 -0 -0 0 0 -1 0 0 -0 -0 -0 -0 -0 -0 0 0 0 0 nan
nan -1 -1 -1 -1 -0 -0 -0 -0 -0 0 0 0 0 0 0 0 0 0 -0 0 -0 -0 -0 0 1 -0 1 1 -0 -0 -1 -1 -0 -0 -0 0 0 0 0 0 -0 nan
nan -1 -1 -1 -0 -0 -0 0 0 -0 -1 -1 -1 -1 0 0 -0 0 1 1 0 -0 0 1 0 0 -1 1 1 -0 -0 -1 -0 0 0 0 0 0 0 0 0 0 nan
nan -0 -0 -0 -0 -0 0 -0 -1 -1 -1 -0 0 1 1 1 1 1 1 1 0 0 0 -0 -0 0 -0 1 0 -0 -1 -0 0 -0 0 0 0 0 0 0 1 1 nan
nan -0 -0 -0 -0 -0 0 0 0 0 1 1 0 -0 1 1 1 1 1 -0 -0 0 -0 0 1 0 0 0 -0 -0 -0 -0 -0 0 -0 -0 0 0 -0 0 1 1 nan
nan nan nan nan nan nan nan nan nan nan nan nan nan nan nan nan nan nan nan nan nan nan nan nan nan nan nan nan nan nan nan nan nan nan nan nan nan nan nan nan nan nan nan
Wind_Speed
15 17 27 27 26 23 23 22 22 21 19 18 16 14 12 10 8 7 11 15 16 15 9 13 18 17 14 12 12 13 16 15 12 11 12 13 14 14 15 16 16 15 13
12 20 27 28 27 24 23 22 21 20 19 17 16 14 12 11 10 10 14 18 15 14 13 15 19 18 16 14 12 14 15 14 14 14 16 16 15 16 16 16 16 16 15
12 18 26 28 27 25 23 22 21 19 18 17 16 15 14 12 12 14 18 15 16 13 15 14 17 16 15 14 13 14 14 15 15 15 15 15 14 15 14 15 16 15 14
10 17 24 26 25 25 24 23 21 19 17 16 15 15 15 14 14 18 17 17 17 14 11 13 14 16 16 15 14 14 13 13 13 13 11 11 12 12 10 10 9 10 9
13 19 24 25 24 25 24 22 21 20 18 16 15 15 16 15 16 18 18 18 16 13 11 13 15 15 15 14 13 12 12 12 11 10 9 9 9 10 10 10 9 9 8
12 18 22 24 24 23 23 22 22 20 19 16 15 15 17 17 18 19 19 19 14 11 12 14 15 15 14 13 12 11 11 11 10 9 8 9 9 9 9 9 9 9 8
12 19 21 23 23 23 21 22 22 20 19 18 17 16 17 18 20 20 19 18 14 13 15 15 15 13 12 12 11 11 10 10 9 9 8 8 8 9 8 8 8 8 7
11 17 20 23 23 23 22 21 21 20 20 19 18 17 17 19 19 20 20 18 16 14 16 16 15 13 11 11 10 10 9 9 9 8 7 7 7 7 6 6 6 6 6
14 16 19 21 23 23 23 22 21 20 20 20 19 18 18 19 20 20 20 19 17 17 18 17 16 13 11 10 9 9 8 8 8 7 7 6 5 5 4 4 4 4 5
12 16 21 22 24 24 24 23 22 21 21 21 22 21 19 19 19 20 19 18 18 20 20 19 17 15 12 10 9 8 7 7 7 6 6 5 4 3 2 2 2 2 3
12 17 22 24 25 26 25 24 23 22 22 22 23 23 22 22 22 21 20 18 18 22 23 21 19 16 13 12 10 8 7 7 6 5 4 4 4 3 1 0 1 2 3
10 15 21 26 26 27 27 26 25 24 24 25 25 25 25 24 24 23 21 19 18 22 24 22 20 18 15 13 11 10 8 7 6 5 4 3 3 3 2 2 2 2 3
15 13 19 25 23 25 25 27 27 26 25 26 25 26 26 25 24 24 24 22 21 24 24 23 22 20 17 15 13 11 9 8 7 6 5 4 3 3 3 4 4 4 4
22 16 14 23 25 24 25 27 26 25 25 26 27 27 27 28 26 26 27 25 23 26 26 24 23 21 19 16 14 13 11 10 8 8 6 5 4 3 3 3 5 6 6
28 22 17 18 28 27 28 27 26 26 25 25 28 29 28 29 28 26 28 27 24 28 28 27 24 22 20 18 16 15 14 12 11 11 9 7 4 3 2 2 5 5 5
32 28 21 19 23 31 28 27 27 27 27 26 27 29 30 30 30 29 30 30 26 28 27 28 24 22 20 19 17 16 15 14 13 13 12 11 7 4 5 5 5 6 7
32 33 28 22 22 26 32 31 29 28 26 25 25 26 28 30 32 30 32 31 31 27 30 28 26 24 21 20 20 18 17 17 16 15 14 13 12 10 10 8 7 7 9
29 34 32 26 24 27 27 30 29 29 27 24 24 23 23 28 30 32 33 33 33 28 30 30 28 25 23 23 21 19 19 19 18 18 17 16 15 13 13 14 12 11 11
28 31 35 31 26 27 29 28 29 30 27 26 24 22 23 27 30 33 36 35 36 29 26 30 28 26 25 24 23 20 20 20 21 19 19 18 17 16 15 15 17 16 15
26 28 30 33 29 25 28 30 29 29 30 29 27 26 26 26 29 30 30 33 29 32 32 30 27 28 27 25 24 23 22 22 21 22 20 19 20 19 17 16 17 19 19
25 33 34 34 31 28 30 31 31 31 31 33 29 29 27 25 26 28 26 33 35 27 39 34 30 31 29 28 25 26 25 24 23 24 23 22 21 18 18 18 19 22 22
27 32 34 36 34 32 30 32 33 31 32 33 34 34 35 36 37 39 38 32 34 35 39 44 37 33 32 32 29 27 24 27 28 25 21 22 20 21 23 22 22 24 23
27 30 37 39 36 34 31 30 32 32 32 34 37 39 40 40 41 42 43 40 39 39 40 45 40 36 35 35 32 24 12 15 14 20 22 22 24 24 26 27 26 26 27
24 30 38 39 36 35 32 32 32 33 34 34 34 35 36 38 39 42 42 40 38 41 39 42 43 41 41 40 34 36 33 17 9 6 14 15 16 22 28 28 30 30 28
20 27 31 35 33 36 36 33 29 30 29 28 28 30 34 37 36 39 45 41 39 42 46 44 39 43 41 41 38 39 38 40 30 22 24 26 25 21 23 26 27 29 29
19 25 26 30 32 35 32 29 27 25 25 25 28 28 28 30 32 32 35 38 40 42 40 40 41 44 42 40 35 35 36 30 23 26 30 29 25 26 26 27 25 29 31
Wind_Direction
213 193 184 179 181 182 177 177 179 179 180 179 179 175 172 167 160 150 145 142 131 140 139 128 114 108 107 117 130 116 115 116 117 124 109 102 94 94 95 86 88 94 97
220 190 184 182 183 186 186 184 182 181 182 184 187 186 183 173 164 159 151 143 139 150 132 133 134 130 135 130 113 119 121 116 107 106 112 106 98 99 92 88 86 88 88
201 192 184 185 186 188 192 191 188 188 188 189 190 188 183 175 169 160 149 148 153 156 141 133 133 138 130 130 118 117 115 112 108 106 112 115 112 103 96 91 88 87 87
191 195 188 186 187 188 191 194 190 189 187 187 189 188 184 177 173 164 155 159 159 156 144 146 134 131 128 124 119 116 113 111 112 111 112 102 111 119 110 113 108 100 103
211 202 191 186 186 188 190 194 194 191 189 188 189 189 184 179 174 165 165 164 166 154 150 149 142 136 131 128 126 120 114 114 117 117 115 106 104 106 99 89 86 83 79
221 201 194 191 189 190 195 193 194 195 194 195 195 192 187 182 178 170 175 173 170 164 162 156 151 144 136 130 128 126 120 118 118 117 114 113 112 106 100 94 88 82 74
207 198 200 198 196 194 197 197 196 196 197 197 195 193 191 188 182 184 183 181 177 170 167 163 160 153 144 136 132 129 126 123 119 118 118 116 112 107 104 98 89 79 70
218 207 206 203 204 204 204 202 200 200 200 200 198 198 196 195 190 190 190 189 184 178 174 172 168 164 154 144 139 135 127 125 125 124 122 119 114 110 105 98 88 78 67
242 226 217 214 208 207 208 209 207 206 205 205 204 203 201 201 201 197 197 200 198 189 183 179 175 173 166 156 147 146 139 136 135 133 129 125 123 114 104 90 77 64 56
228 243 233 223 216 210 210 212 214 214 211 210 208 208 207 207 203 202 205 209 204 195 188 184 182 180 176 170 163 159 155 152 147 144 143 140 134 130 126 95 65 43 38
237 236 243 228 222 215 213 213 216 220 219 216 211 209 209 210 209 210 214 215 211 199 192 188 186 187 186 183 180 178 173 173 172 167 160 161 168 168 172 272 341 7 2
263 239 237 235 227 222 219 217 218 220 220 218 215 210 210 211 212 212 216 214 212 201 194 193 190 190 193 199 198 194 187 187 190 198 199 199 202 209 227 262 287 312 329
279 265 237 236 239 229 229 227 222 222 220 218 213 213 211 211 214 213 213 214 218 205 199 196 194 197 198 203 211 210 210 206 208 213 220 217 219 229 249 268 278 288 309
268 267 258 234 234 230 235 232 232 228 223 218 214 212 213 211 214 215 213 215 212 204 204 201 201 201 203 208 214 219 221 222 220 219 219 220 237 249 254 275 282 283 293
261 261 260 248 231 229 233 237 231 230 231 225 217 212 213 213 214 220 219 220 221 211 209 207 206 208 210 213 218 224 228 229 232 229 225 220 225 244 239 334 326 293 294
253 253 256 252 234 229 229 229 235 232 231 228 221 217 216 216 216 219 229 225 226 223 218 210 209 212 215 219 222 227 229 232 236 234 225 222 226 229 222 264 324 304 304
250 247 249 250 242 230 229 230 229 233 236 232 231 225 223 219 217 220 233 230 230 230 225 219 213 217 220 224 227 232 233 235 238 234 228 230 234 237 247 264 284 295 293
250 243 243 245 245 232 228 227 230 231 231 226 226 226 228 233 229 225 230 233 234 231 233 222 218 221 225 227 232 238 241 240 241 241 240 245 242 246 256 261 267 276 288
244 240 241 239 241 233 225 224 227 230 227 222 224 227 234 235 238 232 231 231 231 230 234 232 220 226 228 237 239 241 243 243 247 245 243 249 249 255 257 267 261 268 279
237 226 232 235 236 233 224 223 223 224 226 220 231 229 236 236 236 241 240 244 236 222 213 237 230 234 235 239 246 250 251 251 247 246 249 252 248 249 255 263 263 267 274
239 226 226 231 232 229 221 218 219 219 223 231 234 231 238 241 233 233 244 240 246 233 210 230 231 234 242 240 251 249 249 250 249 249 251 248 247 251 255 257 265 270 271
242 230 224 228 230 228 224 219 222 226 229 235 238 238 242 245 244 246 251 244 237 228 223 221 220 230 247 240 248 252 259 255 250 246 248 247 246 251 259 259 261 268 263
229 229 220 222 223 225 222 221 224 230 234 238 241 242 243 246 249 250 249 242 242 244 241 220 218 230 245 242 241 236 241 244 247 245 241 244 248 257 260 257 262 266 258
225 229 221 223 222 218 219 221 225 229 234 239 243 246 246 244 245 248 245 242 241 233 220 216 215 223 242 241 239 239 237 245 214 253 248 259 258 270 266 270 265 257 246
233 222 225 227 228 219 220 226 233 238 243 249 253 252 252 251 253 253 246 238 238 228 230 220 212 219 236 241 242 242 237 241 247 260 274 279 283 282 285 285 268 249 243
231 218 227 222 219 218 219 224 225 235 247 251 245 252 256 262 250 249 241 237 232 224 221 224 215 215 239 239 243 250 250 250 254 265 275 280 281 281 282 283 265 258 253
Height
1492 1495 1498 1502 1505 1508 1511 1513 1516 1518 1520 1522 1524 1526 1527 1529 1531 1532 1533 1534 1535 1536 1536 1537 1539 1541 1542 1543 1544 1545 1546 1547 1548 1548 1549 1550 1550 1550 1550 1550 1550 1550 1550
1492 1494 1498 1502 1506 1509 1511 1514 1517 1519 1521 1523 1525 1527 1528 1529 1531 1532 1534 1535 1537 1537 1537 1539 1540 1542 1544 1544 1545 1546 1547 1548 1549 1550 1551 1551 1552 1552 1552 1552 1552 1552 1552
1492 1495 1498 1502 1506 1508 1511 1514 1517 1519 1522 1523 1525 1527 1529 1530 1531 1533 1535 1537 1537 1538 1539 1539 1541 1542 1543 1545 1547 1548 1549 1550 1551 1552 1552 1553 1554 1554 1554 1554 1554 1554 1554
1495 1496 1499 1501 1505 1508 1511 1514 1517 1520 1522 1524 1526 1527 1529 1531 1532 1534 1536 1537 1538 1539 1540 1541 1542 1543 1545 1547 1548 1549 1550 1551 1552 1553 1554 1554 1555 1555 1556 1556 1555 1555 1555
1496 1497 1500 1502 1505 1508 1511 1514 1517 1520 1522 1525 1526 1528 1529 1531 1533 1535 1536 1537 1539 1540 1542 1542 1544 1545 1546 1548 1549 1550 1551 1552 1553 1554 1555 1555 1556 1556 1556 1556 1556 1556 1556
1497 1498 1501 1504 1507 1509 1512 1513 1516 1519 1522 1524 1527 1528 1530 1531 1533 1535 1536 1537 1539 1541 1542 1544 1545 1546 1548 1549 1550 1551 1552 1553 1554 1555 1555 1556 1556 1557 1557 1557 1557 1557 1557
1497 1499 1501 1504 1507 1510 1512 1514 1516 1518 1521 1524 1526 1528 1530 1532 1533 1535 1536 1538 1540 1541 1543 1544 1546 1547 1549 1550 1551 1552 1553 1554 1555 1555 1556 1557 1557 1557 1558 1558 1558 1558 1557
1499 1500 1502 1504 1507 1509 1511 1514 1516 1518 1520 1522 1525 1527 1529 1531 1533 1534 1536 1538 1540 1542 1543 1545 1546 1548 1549 1551 1551 1552 1553 1554 1555 1556 1557 1557 1558 1558 1559 1558 1558 1558 1558
1501 1502 1502 1504 1506 1508 1511 1513 1515 1517 1520 1521 1523 1526 1528 1530 1532 1534 1536 1538 1540 1541 1543 1545 1546 1548 1550 1551 1552 1553 1554 1555 1556 1556 1557 1558 1558 1559 1559 1559 1559 1559 1558
1498 1502 1502 1503 1505 1507 1509 1512 1515 1516 1518 1520 1522 1524 1527 1529 1531 1534 1536 1538 1539 1541 1542 1544 1547 1548 1550 1551 1552 1553 1554 1555 1556 1557 1557 1558 1559 1559 1559 1559 1559 1559 1559
1498 1499 1501 1501 1502 1504 1507 1509 1512 1515 1516 1518 1519 1521 1524 1526 1529 1532 1534 1537 1539 1540 1542 1544 1546 1548 1549 1551 1552 1553 1554 1555 1556 1556 1557 1558 1558 1559 1559 1559 1559 1559 1559
1496 1497 1498 1500 1500 1502 1504 1507 1509 1511 1514 1515 1517 1519 1521 1524 1526 1530 1532 1535 1538 1540 1542 1544 1545 1547 1549 1550 1551 1552 1553 1554 1555 1556 1557 1557 1558 1558 1559 1559 1559 1559 1559
1492 1493 1495 1496 1498 1501 1503 1504 1505 1508 1510 1513 1515 1517 1519 1522 1525 1527 1530 1533 1535 1538 1541 1543 1545 1546 1548 1549 1550 1552 1553 1553 1554 1555 1556 1556 1557 1558 1558 1559 1559 1559 1558
1489 1490 1491 1492 1495 1497 1500 1501 1503 1506 1507 1509 1512 1515 1518 1520 1523 1525 1528 1531 1533 1536 1540 1543 1545 1546 1547 1548 1549 1550 1552 1553 1553 1554 1555 1555 1556 1557 1557 1558 1558 1558 1558
1483 1486 1488 1488 1491 1493 1495 1498 1500 1502 1505 1506 1509 1512 1515 1517 1520 1523 1527 1529 1532 1533 1537 1541 1543 1546 1547 1547 1548 1549 1550 1551 1552 1553 1554 1554 1554 1556 1556 1557 1557 1557 1556
1479 1481 1483 1484 1486 1489 1491 1492 1497 1499 1501 1503 1505 1508 1511 1514 1518 1521 1524 1527 1530 1532 1535 1538 1541 1544 1546 1547 1547 1548 1549 1550 1550 1551 1552 1552 1553 1553 1554 1554 1555 1555 1556
1470 1475 1477 1479 1481 1483 1485 1489 1492 1495 1497 1500 1504 1505 1508 1511 1514 1518 1520 1523 1527 1530 1532 1536 1538 1540 1543 1545 1546 1546 1547 1547 1548 1549 1549 1550 1551 1551 1552 1552 1553 1553 1554
1462 1466 1471 1473 1474 1477 1480 1484 1487 1491 1493 1496 1500 1502 1505 1508 1512 1515 1517 1520 1523 1527 1530 1532 1534 1537 1540 1541 1543 1544 1545 1545 1545 1546 1547 1547 1548 1549 1550 1551 1552 1552 1552
1454 1457 1462 1466 1468 1471 1475 1479 1482 1487 1489 1493 1496 1499 1502 1504 1508 1510 1512 1515 1519 1523 1527 1533 1530 1533 1536 1540 1541 1541 1542 1542 1543 1543 1543 1544 1545 1547 1547 1548 1549 1549 1550
1446 1450 1454 1458 1462 1465 1469 1472 1477 1479 1484 1489 1492 1494 1498 1501 1504 1506 1509 1512 1515 1517 1522 1530 1528 1531 1532 1536 1538 1539 1539 1539 1540 1539 1539 1540 1541 1542 1543 1544 1545 1546 1547
1439 1443 1446 1451 1455 1459 1461 1466 1470 1474 1479 1482 1486 1490 1493 1496 1499 1502 1504 1507 1510 1512 1515 1524 1524 1526 1527 1532 1535 1535 1534 1536 1535 1534 1534 1535 1536 1537 1538 1538 1539 1541 1541
1431 1434 1438 1442 1448 1452 1456 1460 1464 1470 1473 1477 1480 1484 1487 1490 1493 1496 1498 1502 1505 1509 1511 1514 1517 1522 1524 1528 1533 1532 1532 1531 1529 1529 1530 1531 1532 1532 1533 1534 1535 1535 1535
1423 1426 1430 1434 1439 1445 1451 1455 1460 1464 1467 1470 1474 1477 1480 1484 1486 1489 1491 1495 1499 1501 1502 1504 1512 1517 1519 1522 1528 1530 1529 1526 1523 1524 1525 1527 1528 1528 1527 1528 1529 1530 1531
1416 1420 1423 1427 1432 1438 1445 1448 1453 1456 1459 1463 1467 1470 1473 1475 1478 1481 1484 1488 1491 1495 1497 1501 1504 1510 1514 1516 1520 1523 1523 1524 1520 1521 1523 1523 1523 1524 1523 1524 1523 1524 1525
1411 1414 1418 1423 1427 1434 1438 1443 1447 1450 1453 1457 1459 1462 1466 1468 1471 1473 1475 1481 1484 1488 1491 1495 1498 1503 1507 1510 1512 1514 1516 1516 1515 1518 1518 1516 1516 1517 1519 1519 1517 1518 1519
1406 1410 1415 1420 1425 1430 1434 1438 1442 1445 1449 1451 1455 1457 1459 1460 1463 1466 1468 1472 1476 1482 1486 1490 1494 1499 1501 1504 1507 1509 1509 1510 1512 1512 1513 1511 1510 1509 1510 1511 1511 1512 1514